[[{"header":{"parameterUnit":"m.s-1","parameterCategory":2,"la1":30.2991,"la2":30.254,"lo1":-89.0895,"lo2":-89.0444,"dy":0.0017,"dx":0.0017,"nx":28,"ny":28,"refTime":"2023-09-05T09:00:00:Z","depth":"0","parameterNumber":2,"parameterNumberName":"U-component_of_CURRENTS"},"data":[0,0,0,0,0,0,0,0,0,0,0,0,0,0,0,0,0,0,0,0,0,0,0,0,0,0,0,0,0,0,0,0,0,0,0,0,0,0,0,0,0,0,0,0,0,0,0,0,0,0,0,0,0,0,0,0,0,0,0.2068,0.2068,0,0.2068,0.2068,0.2068,0.2051,0.2051,0.2051,0.2051,0.2011,0.201,0.2009,0,0,0,0,0,0,0,0,0,0,0,0,0,0.2062,0.2062,0.2068,0.2068,0.2069,0.2068,0.2068,0.2068,0.2051,0.2051,0.2051,0.2051,0.2011,0.201,0.2009,0,0,0,0,0,0,0,0,0,0,0,0,0,0.2062,0.2062,0.2068,0.2062,0.2062,0.2068,0.2068,0.2068,0.2052,0.2051,0.2051,0.2051,0.2012,0.201,0.2009,0.2009,0,0,0.2005,0.2005,0,0,0,0,0,0,0,0,0.2062,0.2062,0.2063,0.2062,0.2062,0.2061,0.2051,0.2047,0.2052,0.2053,0.2051,0.205,0.2026,0.2023,0.2022,0.2007,0.2005,0.2005,0.2004,0.2004,0.2004,0,0,0,0,0,0,0,0.2062,0.2062,0.2066,0.2063,0.2063,0.2062,0.2061,0.205,0.2039,0.2053,0.2052,0.2056,0.2025,0.2023,0.2021,0.2004,0.2005,0.2004,0.2003,0.2003,0.2026,0.2027,0,0,0,0,0,0,0.2066,0.2062,0.2066,0.2066,0.2063,0.2063,0.2062,0.206,0.204,0.2038,0.2056,0.2055,0.2025,0.2022,0.2019,0.2039,0.2004,0.2003,0.2002,0.2025,0.2026,0.2028,0,0,0,0,0,0,0.2066,0.2066,0.2066,0.2066,0.2066,0.2063,0.2062,0.206,0.2063,0.2043,0.2039,0.2061,0.2025,0.2021,0.2021,0.2037,0.2002,0.2001,0.2023,0.2025,0.2027,0.2066,0,0,0,0,0,0,0.2066,0.2066,0.2065,0.2066,0.2066,0.2077,0.2062,0.2061,0.2067,0.2065,0.2046,0.2042,0.2024,0.2024,0.202,0.2034,0.2,0.2021,0.2024,0.2026,0.2063,0.2069,0.2074,0,0,0,0,0,0.2065,0.2066,0.2065,0.2066,0.2065,0.2078,0.2078,0.2073,0.2067,0.2073,0.2064,0.2043,0.2038,0.2023,0.2019,0.2033,0.202,0.2023,0.2026,0.206,0.2068,0.2074,0,0,0,0,0,0,0.2066,0.2065,0.2063,0.2065,0.2074,0.2076,0.208,0.2079,0.2077,0.2075,0.2054,0.2049,0.206,0.2045,0.203,0.2051,0.2028,0.2031,0.2055,0.2062,0.2068,0.2075,0.1999,0,0,0,0,0,0.2066,0.2064,0.2071,0.2073,0.2079,0.2082,0.2086,0.2086,0.2086,0.2084,0.2072,0.2066,0.207,0.2064,0.2063,0.2066,0.2071,0.2076,0.2082,0.2087,0.2092,0.2121,0.213,0.2038,0.2038,0.2038,0,0,0.2065,0.2067,0.2064,0.2073,0.2078,0.2089,0.2083,0.2094,0.2102,0.208,0.2084,0.2085,0.2078,0.2089,0.2092,0.2074,0.2118,0.2091,0.2094,0.2097,0.2125,0.2134,0.2142,0.204,0.204,0.2039,0,0,0.2066,0.2069,0.2068,0.2078,0.2091,0.2098,0.2105,0.2112,0.2116,0.2124,0.2119,0.2132,0.2122,0.2127,0.2127,0.2164,0.2153,0.2165,0.2189,0.2217,0.2225,0.2231,0.2257,0.2265,0.2161,0.2161,0.2161,0,0.207,0.2065,0.2072,0.208,0.2089,0.2104,0.2113,0.2124,0.213,0.214,0.2129,0.215,0.2142,0.2168,0.2183,0.2176,0.219,0.2159,0.2224,0.2231,0.2237,0.2261,0.227,0.2163,0.2163,0.2162,0.2162,0,0.2066,0.2069,0.2075,0.2086,0.21,0.2113,0.2133,0.2149,0.2157,0.2167,0.2196,0.2196,0.2208,0.2214,0.2206,0.2251,0.2247,0.2232,0.2204,0.2248,0.2271,0.228,0.2166,0.2165,0.2165,0.2164,0,0,0.2059,0.2068,0.207,0.2077,0.2104,0.2117,0.2143,0.2172,0.2197,0.2208,0.2237,0.2255,0.2265,0.2268,0.2268,0.2291,0.2348,0.2281,0.2282,0.2302,0.2415,0.2413,0.2422,0.2345,0.2347,0.2348,0.2415,0,0.2056,0.2062,0.207,0.2088,0.2099,0.2127,0.2151,0.2182,0.2211,0.2245,0.2265,0.2292,0.2282,0.2295,0.232,0.2345,0.2372,0.2331,0.2373,0.2374,0.2363,0.2432,0.237,0.2426,0.2424,0.2425,0.2426,0,0.2041,0.2054,0.2057,0.2091,0.2099,0.2112,0.2164,0.219,0.2249,0.2275,0.2314,0.233,0.2375,0.2356,0.2422,0.2398,0.2414,0.2427,0.2429,0.2419,0.2389,0.238,0.2441,0.2407,0.2439,0.2438,0.2437,0,0.2018,0.2045,0.2044,0.2053,0.2093,0.2106,0.2136,0.2194,0.2224,0.2298,0.2329,0.2383,0.2415,0.2446,0.248,0.2455,0.2553,0.2515,0.2528,0.2528,0.248,0.2472,0.2507,0.2564,0.2564,0.2563,0.2563,0,0.1999,0.2002,0.2031,0.2031,0.2048,0.2092,0.212,0.2168,0.2237,0.228,0.234,0.2385,0.2441,0.2496,0.251,0.2562,0.2579,0.2555,0.2554,0.2492,0.2486,0.2456,0.2421,0.2566,0.2565,0.2565,0.2565,0,0.1952,0.1968,0.1974,0.2015,0.2026,0.2038,0.2092,0.2127,0.2205,0.2266,0.229,0.2401,0.2487,0.2539,0.2609,0.2606,0.2582,0.2654,0.2582,0.2572,0.2531,0.25,0.2411,0.233,0.2675,0.2675,0.2675,0,0.1918,0.1916,0.1944,0.1949,0.1958,0.1986,0.201,0.2092,0.2141,0.227,0.2303,0.2414,0.2489,0.261,0.2648,0.2697,0.2603,0.265,0.2587,0.2544,0.251,0.2377,0.2306,0.2539,0.2539,0.2538,0.2538,0,0.1867,0.1873,0.188,0.189,0.1905,0.1923,0.1972,0.1997,0.2108,0.2173,0.228,0.235,0.2507,0.256,0.2649,0.2659,0.2531,0.2638,0.2612,0.2434,0.2272,0.2189,0.2479,0.2532,0.2533,0.2533,0.2534,0.2534,0.1822,0.1815,0.1825,0.1826,0.1843,0.1851,0.1842,0.1916,0.1968,0.2054,0.2189,0.2282,0.2447,0.2575,0.2575,0.2572,0.2501,0.2509,0.2485,0.2362,0.2251,0.2536,0.2576,0.2577,0.2577,0.2578,0.2578,0,0.177,0.1766,0.1768,0.1759,0.1745,0.1779,0.181,0.1799,0.1825,0.1967,0.205,0.2218,0.2315,0.2428,0.2523,0.2451,0.2296,0.238,0.2184,0.2127,0.2418,0.2382,0.2359,0.2359,0.2359,0.2359,0.2359,0.2359,0.1739,0.1713,0.1711,0.1658,0.1654,0.161,0.1604,0.161,0.1688,0.1775,0.1884,0.2015,0.2255,0.2421,0.2429,0.2363,0.2164,0.2064,0.2025,0.2265,0.2275,0.2284,0.2244,0.2192,0.2192,0.1646,0.1642,0.1639]},{"header":{"parameterUnit":"m.s-1","parameterCategory":2,"la1":30.2991,"la2":30.254,"lo1":-89.0895,"lo2":-89.0444,"dy":0.0017,"dx":0.0017,"nx":28,"ny":28,"refTime":"2023-09-05T09:00:00:Z","depth":"0","parameterNumber":3,"parameterNumberName":"V-component_of_CURRENTS"},"data":[0,0,0,0,0,0,0,0,0,0,0,0,0,0,0,0,0,0,0,0,0,0,0,0,0,0,0,0,0,0,0,0,0,0,0,0,0,0,0,0,0,0,0,0,0,0,0,0,0,0,0,0,0,0,0,0,0,0,0.0061,0.0061,0,0.0009,0.0009,0.0008,-0.0021,-0.0021,-0.0021,-0.0021,-0.0078,-0.0079,-0.0081,0,0,0,0,0,0,0,0,0,0,0,0,0,0.0117,0.0116,0.0061,0.0061,0.006,0.0009,0.0009,0.0008,-0.0021,-0.0021,-0.0021,-0.0021,-0.0077,-0.0079,-0.0081,0,0,0,0,0,0,0,0,0,0,0,0,0,0.0081,0.0116,0.0061,0.004,0.0038,0.0009,0.0008,0.0008,-0.0021,-0.0021,-0.0021,-0.0021,-0.0077,-0.0079,-0.0081,-0.0094,0,0,-0.0088,-0.0089,0,0,0,0,0,0,0,0,0.0083,0.0079,0.0044,0.0042,0.0039,0.0001,0.0007,-0.0027,-0.0021,0.0,-0.0021,-0.0021,-0.0051,-0.0056,-0.0067,-0.0097,-0.0099,-0.0088,-0.009,-0.0091,-0.0091,0,0,0,0,0,0,0,0.0086,0.0081,0.004,0.0043,0.004,0.0027,0.0022,0.0001,-0.0025,-0.0001,-0.0004,-0.0008,-0.0053,-0.0064,-0.0068,-0.01,-0.0088,-0.009,-0.0092,-0.0092,-0.0135,-0.0135,0,0,0,0,0,0,0.0095,0.0083,0.0042,0.0038,0.0062,0.0026,0.002,0.0013,-0.0025,-0.0031,-0.0008,-0.0009,-0.006,-0.0065,-0.007,-0.0072,-0.0091,-0.0093,-0.0094,-0.0136,-0.0135,-0.0135,0,0,0,0,0,0,0.0096,0.0091,0.0044,0.0061,0.0054,0.0025,0.0017,0.0012,0.0004,-0.003,-0.0036,-0.001,-0.0061,-0.0067,-0.0086,-0.0075,-0.0094,-0.0096,-0.0136,-0.0136,-0.0135,-0.0085,0,0,0,0,0,0,0.0098,0.0092,0.0091,0.0061,0.0053,0.0033,0.0017,0.0011,0.0001,-0.0001,-0.0034,-0.0039,-0.0061,-0.0083,-0.0088,-0.0078,-0.0097,-0.0136,-0.0136,-0.0135,-0.0087,-0.0083,-0.008,0,0,0,0,0,0.01,0.0101,0.0091,0.0086,0.0052,0.0034,0.0028,0.0008,0.0001,-0.0,-0.0024,-0.0038,-0.0084,-0.0085,-0.0091,-0.0081,-0.0136,-0.0136,-0.0135,-0.0088,-0.0084,-0.008,0,0,0,0,0,0,0.0126,0.0097,0.0086,0.0078,0.006,0.0029,0.0027,0.0012,-0.0008,-0.0008,-0.0039,-0.0047,-0.0058,-0.0079,-0.0078,-0.0093,-0.0111,-0.0112,-0.0073,-0.0069,-0.0065,-0.0051,-0.0099,0,0,0,0,0,0.0131,0.0125,0.0096,0.0091,0.0084,0.0057,0.0048,0.0034,0.0011,0.0003,-0.0021,-0.0044,-0.0063,-0.0072,-0.0094,-0.0104,-0.0124,-0.0101,-0.0097,-0.0094,-0.0087,-0.0115,-0.0113,-0.0134,-0.0134,-0.0134,0,0,0.0141,0.0125,0.0121,0.0097,0.0082,0.0078,0.0051,0.0042,0.0041,-0.0,-0.0007,-0.0033,-0.0063,-0.0074,-0.008,-0.0088,-0.0098,-0.0093,-0.009,-0.0085,-0.0114,-0.0112,-0.011,-0.0133,-0.0134,-0.0134,0,0,0.0162,0.0143,0.0146,0.0134,0.0114,0.0097,0.0098,0.007,0.006,0.0044,0.0019,-0.0002,-0.0032,-0.0051,-0.0064,-0.0054,-0.0079,-0.0057,-0.0026,-0.0052,-0.0051,-0.0049,-0.0069,-0.007,-0.0054,-0.0054,-0.0054,0,0.0177,0.0172,0.0145,0.0146,0.0145,0.0111,0.012,0.0102,0.0072,0.0069,0.005,0.0008,-0.0022,-0.003,-0.0027,-0.0045,-0.0061,-0.0038,-0.0047,-0.0046,-0.0046,-0.0066,-0.0068,-0.0051,-0.0052,-0.0052,-0.0052,0,0.0196,0.0195,0.0198,0.0188,0.0184,0.0184,0.0162,0.0154,0.0136,0.0117,0.0101,0.0056,0.0033,0.002,-0.0002,-0.0007,-0.0019,-0.0039,-0.0055,-0.004,-0.0063,-0.0066,-0.0048,-0.0049,-0.0049,-0.005,0,0,0.0227,0.0214,0.0216,0.0225,0.0208,0.021,0.021,0.0202,0.0209,0.017,0.0174,0.0129,0.0104,0.0087,0.0055,0.003,0.0014,0.0003,0.0001,-0.0011,-0.0036,-0.0042,-0.0045,-0.0005,-0.0006,-0.0006,-0.0052,0,0.0252,0.0267,0.0254,0.0279,0.0288,0.0267,0.0272,0.0262,0.0245,0.0238,0.0189,0.0177,0.0131,0.0122,0.009,0.0036,0.0009,0.0029,-0.0054,-0.0056,-0.0058,-0.0048,-0.0023,-0.0061,-0.0054,-0.0055,-0.0055,0,0.0278,0.0286,0.0312,0.0328,0.0332,0.0341,0.0354,0.0356,0.0334,0.0321,0.0295,0.0256,0.0218,0.0171,0.0087,0.0105,0.0041,-0.0008,-0.0012,-0.0035,-0.0066,-0.0076,-0.0066,-0.0168,-0.006,-0.0059,-0.0059,0,0.0317,0.0331,0.0357,0.0361,0.0369,0.0382,0.0388,0.0381,0.04,0.0376,0.0381,0.0323,0.0302,0.0213,0.0112,0.01,0.0018,-0.0016,-0.0082,-0.0083,-0.0087,-0.0088,-0.018,-0.008,-0.008,-0.008,-0.008,0,0.0348,0.0371,0.0377,0.0392,0.0431,0.0426,0.0463,0.0459,0.0468,0.05,0.043,0.0441,0.0312,0.0248,0.014,0.0032,0.0037,-0.0071,-0.0094,-0.0069,-0.0067,-0.0177,-0.0259,-0.0082,-0.0081,-0.0081,-0.0081,0,0.0382,0.0383,0.0419,0.0439,0.0449,0.0479,0.0516,0.0547,0.0543,0.0581,0.058,0.0536,0.0457,0.0322,0.0186,0.0081,-0.01,-0.0078,-0.0034,-0.0051,-0.0213,-0.0292,-0.0426,-0.0483,-0.016,-0.0161,-0.0161,0,0.0399,0.0418,0.0458,0.0484,0.0494,0.0532,0.0565,0.0583,0.0627,0.0646,0.0679,0.0618,0.0597,0.0398,0.0203,0.0017,-0.0106,-0.0093,-0.012,-0.0213,-0.0319,-0.0372,-0.0415,-0.0107,-0.0107,-0.0107,-0.0107,0,0.0434,0.0447,0.0477,0.0531,0.0573,0.0623,0.0673,0.0722,0.0753,0.079,0.084,0.0827,0.0646,0.0487,0.0229,0.0089,-0.0171,-0.0097,-0.0207,-0.0295,-0.0346,-0.0413,-0.0085,-0.0106,-0.0106,-0.0106,-0.0106,-0.0106,0.0464,0.0491,0.0531,0.0582,0.0637,0.071,0.0756,0.0826,0.0908,0.0979,0.0971,0.0992,0.0753,0.0414,0.0202,-0.0147,-0.0181,-0.0249,-0.034,-0.0385,-0.0438,-0.0102,-0.0141,-0.0142,-0.0142,-0.0142,-0.0142,0,0.0501,0.0529,0.0578,0.0643,0.0707,0.073,0.0829,0.0886,0.0988,0.1084,0.1131,0.1073,0.0753,0.0422,-0.0052,-0.032,-0.043,-0.0476,-0.0547,-0.0582,-0.0286,-0.0278,-0.0331,-0.0331,-0.0331,-0.0331,-0.0331,-0.033,0.0521,0.0571,0.0592,0.0691,0.074,0.083,0.0888,0.0981,0.1075,0.1202,0.1268,0.1296,0.1104,0.0206,-0.0384,-0.0548,-0.0751,-0.0805,-0.0917,-0.0713,-0.0698,-0.0684,-0.0694,-0.0833,-0.0834,-0.1148,-0.1151,-0.1154]}],[{"header":{"parameterUnit":"m.s-1","parameterCategory":2,"la1":30.2991,"la2":30.254,"lo1":-89.0895,"lo2":-89.0444,"dy":0.0017,"dx":0.0017,"nx":28,"ny":28,"refTime":"2023-09-05T09:00:00:Z","depth":"2","parameterNumber":2,"parameterNumberName":"U-component_of_CURRENTS"},"data":[0,0,0,0,0,0,0,0,0,0,0,0,0,0,0,0,0,0,0,0,0,0,0,0,0,0,0,0,0,0,0,0,0,0,0,0,0,0,0,0,0,0,0,0,0,0,0,0,0,0,0,0,0,0,0,0,0,0,0.2046,0.2046,0,0.2051,0.2051,0.2051,0.2041,0.2041,0.2041,0.2041,0.2012,0.2012,0.2011,0,0,0,0,0,0,0,0,0,0,0,0,0,0.2028,0.2028,0.2046,0.2046,0.2047,0.2051,0.2051,0.2051,0.2041,0.2041,0.2041,0.2041,0.2012,0.2012,0.2011,0,0,0,0,0,0,0,0,0,0,0,0,0,0.2033,0.2028,0.2046,0.2044,0.2044,0.2051,0.2051,0.2051,0.2041,0.2041,0.2041,0.204,0.2013,0.2012,0.2011,0.201,0,0,0.2008,0.2008,0,0,0,0,0,0,0,0,0.2033,0.2033,0.2044,0.2044,0.2044,0.2047,0.2035,0.2036,0.2041,0.204,0.2041,0.204,0.2022,0.2021,0.202,0.2009,0.2007,0.2008,0.2007,0.2007,0.2007,0,0,0,0,0,0,0,0.2032,0.2033,0.2046,0.2044,0.2044,0.2043,0.2043,0.2035,0.203,0.204,0.204,0.2044,0.2022,0.2021,0.2019,0.2007,0.2008,0.2007,0.2007,0.2006,0.2036,0.2037,0,0,0,0,0,0,0.2036,0.2033,0.2046,0.2047,0.204,0.2043,0.2043,0.2045,0.2031,0.203,0.2044,0.2043,0.2022,0.202,0.2018,0.2042,0.2007,0.2006,0.2006,0.2034,0.2036,0.2037,0,0,0,0,0,0,0.2035,0.2037,0.2046,0.2041,0.2043,0.2044,0.2045,0.2045,0.2051,0.2035,0.2032,0.2051,0.2022,0.2019,0.2024,0.204,0.2006,0.2005,0.2033,0.2035,0.2037,0.2074,0,0,0,0,0,0,0.2035,0.2037,0.2039,0.2042,0.2043,0.2058,0.2046,0.2045,0.2054,0.2053,0.204,0.2037,0.2022,0.2025,0.2023,0.2038,0.2004,0.2031,0.2034,0.2036,0.2072,0.2077,0.2083,0,0,0,0,0,0.2034,0.2038,0.2039,0.2041,0.2046,0.2059,0.2059,0.2058,0.2055,0.2061,0.2056,0.2037,0.2039,0.2025,0.2022,0.2038,0.203,0.2033,0.2036,0.2069,0.2076,0.2082,0,0,0,0,0,0,0.2034,0.2038,0.2039,0.2045,0.2055,0.2058,0.2064,0.2065,0.2066,0.2066,0.2048,0.2045,0.206,0.2046,0.2031,0.2057,0.2034,0.2037,0.2061,0.2067,0.2073,0.2079,0.2003,0,0,0,0,0,0.2035,0.2038,0.2047,0.2053,0.206,0.2064,0.207,0.2071,0.2073,0.2074,0.2066,0.2063,0.2069,0.2065,0.2067,0.2073,0.2077,0.2085,0.209,0.2095,0.21,0.2127,0.2136,0.2047,0.2047,0.2047,0,0,0.2036,0.2041,0.2041,0.2054,0.206,0.2071,0.2067,0.208,0.2089,0.207,0.2079,0.2082,0.2078,0.2091,0.2096,0.2079,0.2125,0.2099,0.2102,0.2105,0.2131,0.214,0.2147,0.2049,0.2049,0.2048,0,0,0.2039,0.2046,0.2049,0.206,0.2075,0.2082,0.2089,0.2099,0.2104,0.2115,0.2112,0.2128,0.2123,0.213,0.2131,0.2168,0.2158,0.217,0.2194,0.2221,0.2228,0.2235,0.2257,0.2265,0.2167,0.2167,0.2167,0,0.2044,0.2044,0.2054,0.2063,0.2073,0.2089,0.2099,0.2111,0.212,0.2131,0.2123,0.2148,0.2143,0.2169,0.2185,0.218,0.2193,0.2166,0.2228,0.2234,0.224,0.2261,0.227,0.2169,0.2169,0.2169,0.2168,0,0.2043,0.205,0.2057,0.2072,0.2086,0.21,0.212,0.2138,0.2148,0.2159,0.2191,0.2193,0.2208,0.2215,0.2209,0.2253,0.2249,0.2235,0.2208,0.2251,0.2271,0.2279,0.2172,0.2171,0.2171,0.217,0,0,0.2038,0.2053,0.2054,0.2064,0.2092,0.2104,0.2132,0.2161,0.2186,0.2201,0.223,0.2252,0.2263,0.2267,0.227,0.2292,0.2346,0.2283,0.2284,0.2301,0.2409,0.2393,0.24,0.2344,0.2346,0.2347,0.2408,0,0.2037,0.2047,0.2056,0.2076,0.2088,0.2116,0.2141,0.2173,0.2202,0.2236,0.2259,0.2287,0.228,0.2295,0.232,0.2344,0.2369,0.2331,0.2369,0.237,0.2347,0.241,0.222,0.2258,0.2416,0.2417,0.2418,0,0.2025,0.2039,0.2046,0.2082,0.209,0.2105,0.2155,0.2182,0.224,0.2267,0.2306,0.2323,0.237,0.2352,0.2416,0.2394,0.2409,0.2421,0.2423,0.24,0.237,0.224,0.2266,0.2431,0.243,0.2429,0.2428,0,0.2002,0.2031,0.2034,0.2044,0.2086,0.21,0.2131,0.2188,0.2217,0.229,0.2321,0.2374,0.2408,0.2437,0.247,0.2448,0.2538,0.2504,0.2503,0.2502,0.2343,0.2326,0.2549,0.2549,0.2549,0.2549,0.2549,0,0.1985,0.199,0.2023,0.2025,0.2044,0.2088,0.2118,0.2165,0.2232,0.2273,0.2334,0.2376,0.2433,0.2484,0.2498,0.2539,0.2562,0.2526,0.2524,0.2353,0.2336,0.2483,0.2474,0.2551,0.2551,0.255,0.255,0,0.1941,0.1959,0.1969,0.2013,0.2024,0.2039,0.2093,0.2127,0.2204,0.2262,0.2286,0.2392,0.247,0.2521,0.2585,0.2578,0.2611,0.2615,0.2415,0.2389,0.2546,0.2539,0.2617,0.2617,0.2617,0.2617,0.2617,0,0.191,0.1911,0.1942,0.1948,0.196,0.1991,0.2015,0.2095,0.2141,0.2263,0.2294,0.2399,0.2462,0.2568,0.2583,0.262,0.2639,0.2452,0.2375,0.2567,0.2557,0.255,0.2543,0.2177,0.2173,0.2171,0.2168,0,0.1863,0.1872,0.1881,0.1894,0.191,0.1928,0.1977,0.2001,0.2108,0.2166,0.2264,0.2325,0.2451,0.2422,0.2487,0.2471,0.2432,0.2397,0.2651,0.2199,0.216,0.2148,0.2154,0.2142,0.2145,0.2147,0.2148,0.2149,0.1822,0.1817,0.183,0.1833,0.185,0.1859,0.1851,0.1919,0.1964,0.2031,0.2156,0.2192,0.226,0.2272,0.2225,0.2192,0.2355,0.2234,0.2239,0.2248,0.2197,0.2161,0.2133,0.2136,0.2138,0.214,0.2141,0,0.1771,0.1771,0.1774,0.1768,0.1754,0.179,0.1818,0.18,0.1816,0.1912,0.1973,0.1868,0.1875,0.193,0.1861,0.1889,0.1826,0.1794,0.1685,0.1715,0.1741,0.1658,0.1454,0.1452,0.1449,0.1447,0,0,0.1742,0.1719,0.1717,0.1667,0.1665,0.1621,0.1616,0.1607,0.1648,0.1638,0.1647,0.1794,0.1899,0.1647,0.1636,0.1532,0.1597,0.1469,0.2031,0.1935,0.1957,0.2021,0.1933,0,0,0,0,0]},{"header":{"parameterUnit":"m.s-1","parameterCategory":2,"la1":30.2991,"la2":30.254,"lo1":-89.0895,"lo2":-89.0444,"dy":0.0017,"dx":0.0017,"nx":28,"ny":28,"refTime":"2023-09-05T09:00:00:Z","depth":"2","parameterNumber":3,"parameterNumberName":"V-component_of_CURRENTS"},"data":[0,0,0,0,0,0,0,0,0,0,0,0,0,0,0,0,0,0,0,0,0,0,0,0,0,0,0,0,0,0,0,0,0,0,0,0,0,0,0,0,0,0,0,0,0,0,0,0,0,0,0,0,0,0,0,0,0,0,-0.0008,-0.0008,0,-0.0057,-0.0058,-0.0059,-0.0087,-0.0087,-0.0087,-0.0087,-0.0138,-0.0139,-0.014,0,0,0,0,0,0,0,0,0,0,0,0,0,0.004,0.004,-0.0008,-0.0008,-0.0009,-0.0057,-0.0058,-0.0059,-0.0087,-0.0087,-0.0087,-0.0087,-0.0137,-0.0139,-0.014,0,0,0,0,0,0,0,0,0,0,0,0,0,0.0007,0.0039,-0.0007,-0.0028,-0.003,-0.0057,-0.0058,-0.0059,-0.0087,-0.0087,-0.0087,-0.0087,-0.0137,-0.0139,-0.0141,-0.0152,0,0,-0.0147,-0.0147,0,0,0,0,0,0,0,0,0.0009,0.0006,-0.0024,-0.0027,-0.0029,-0.0065,-0.006,-0.009,-0.0087,-0.0066,-0.0087,-0.0087,-0.0113,-0.0117,-0.0127,-0.0154,-0.0156,-0.0147,-0.0148,-0.0149,-0.0149,0,0,0,0,0,0,0,0.0012,0.0008,-0.0028,-0.0025,-0.0028,-0.0043,-0.0047,-0.0066,-0.0089,-0.0068,-0.007,-0.0074,-0.0115,-0.0125,-0.0128,-0.0157,-0.0147,-0.0148,-0.015,-0.015,-0.0188,-0.0187,0,0,0,0,0,0,0.002,0.001,-0.0026,-0.0029,-0.0009,-0.0043,-0.0048,-0.0054,-0.0089,-0.0094,-0.0074,-0.0075,-0.0122,-0.0126,-0.013,-0.013,-0.0149,-0.0151,-0.0152,-0.0188,-0.0188,-0.0187,0,0,0,0,0,0,0.0021,0.0017,-0.0024,-0.001,-0.0017,-0.0044,-0.005,-0.0055,-0.0062,-0.0094,-0.0099,-0.0076,-0.0122,-0.0128,-0.0144,-0.0132,-0.0152,-0.0153,-0.0188,-0.0188,-0.0187,-0.0138,0,0,0,0,0,0,0.0023,0.0018,0.0019,-0.001,-0.0017,-0.0033,-0.005,-0.0056,-0.0065,-0.0067,-0.0097,-0.0102,-0.0122,-0.0141,-0.0146,-0.0135,-0.0155,-0.0188,-0.0188,-0.0187,-0.014,-0.0136,-0.0133,0,0,0,0,0,0.0025,0.0029,0.0019,0.0015,-0.0016,-0.0033,-0.0038,-0.0058,-0.0065,-0.0065,-0.0087,-0.0101,-0.0142,-0.0143,-0.0149,-0.0138,-0.0188,-0.0188,-0.0188,-0.0142,-0.0137,-0.0133,0,0,0,0,0,0,0.0052,0.0025,0.0015,0.0011,-0.0007,-0.0037,-0.0038,-0.0053,-0.0071,-0.0071,-0.0101,-0.0108,-0.0118,-0.0137,-0.0136,-0.0148,-0.0166,-0.0167,-0.0129,-0.0125,-0.0122,-0.0108,-0.0157,0,0,0,0,0,0.0058,0.0054,0.0026,0.0025,0.0017,-0.0009,-0.0018,-0.0032,-0.0053,-0.0061,-0.0082,-0.0104,-0.0121,-0.013,-0.0149,-0.0157,-0.0178,-0.0154,-0.015,-0.0147,-0.014,-0.0167,-0.0165,-0.0186,-0.0186,-0.0186,0,0,0.0068,0.0054,0.0052,0.003,0.0015,0.0012,-0.0014,-0.0022,-0.0023,-0.0063,-0.0068,-0.0093,-0.0121,-0.013,-0.0135,-0.0143,-0.0151,-0.0146,-0.0143,-0.0138,-0.0166,-0.0164,-0.0162,-0.0185,-0.0186,-0.0186,0,0,0.009,0.0075,0.008,0.0068,0.0049,0.0033,0.0033,0.0006,-0.0003,-0.0017,-0.0042,-0.0062,-0.0089,-0.0107,-0.0119,-0.0109,-0.0133,-0.0111,-0.008,-0.0105,-0.0104,-0.0102,-0.0123,-0.0124,-0.0107,-0.0107,-0.0107,0,0.0106,0.0104,0.0079,0.0081,0.0079,0.0046,0.0055,0.0038,0.001,0.0007,-0.0011,-0.0051,-0.0078,-0.0085,-0.0083,-0.01,-0.0115,-0.0092,-0.01,-0.0099,-0.0099,-0.0121,-0.0122,-0.0105,-0.0105,-0.0105,-0.0105,0,0.0127,0.0128,0.0131,0.0123,0.012,0.012,0.0098,0.0091,0.0074,0.0056,0.0041,-0.0002,-0.0024,-0.0036,-0.0057,-0.0061,-0.0074,-0.0093,-0.0108,-0.0094,-0.0118,-0.012,-0.0101,-0.0102,-0.0103,-0.0103,0,0,0.0158,0.0148,0.015,0.0158,0.0143,0.0145,0.0146,0.0138,0.0145,0.0108,0.0111,0.007,0.0046,0.003,-0.0001,-0.0025,-0.0041,-0.0051,-0.0053,-0.0066,-0.0091,-0.0096,-0.01,-0.0059,-0.0059,-0.006,-0.0108,0,0.0184,0.0199,0.0188,0.0212,0.0221,0.02,0.0206,0.0197,0.0181,0.0173,0.0127,0.0116,0.0072,0.0064,0.0033,-0.0019,-0.0046,-0.0026,-0.0108,-0.011,-0.0112,-0.0103,-0.008,-0.0121,-0.0111,-0.0111,-0.0112,0,0.0209,0.0217,0.0244,0.0259,0.0263,0.0272,0.0285,0.0287,0.0266,0.0254,0.0229,0.0192,0.0156,0.0112,0.003,0.0047,-0.0015,-0.0063,-0.0067,-0.0089,-0.012,-0.0135,-0.0127,-0.0117,-0.0116,-0.0116,-0.0116,0,0.0246,0.026,0.0287,0.029,0.0299,0.0312,0.0317,0.0312,0.0329,0.0307,0.0312,0.0256,0.0236,0.015,0.0052,0.0042,-0.0041,-0.0072,-0.0138,-0.0139,-0.0145,-0.0146,-0.0136,-0.0136,-0.0135,-0.0135,-0.0135,0,0.0276,0.0298,0.0305,0.032,0.0358,0.0353,0.0389,0.0386,0.0395,0.0425,0.0359,0.0368,0.0246,0.0183,0.0078,-0.0028,-0.0023,-0.0127,-0.015,-0.0127,-0.0126,-0.0144,-0.0144,-0.0137,-0.0137,-0.0136,-0.0136,0,0.0309,0.0311,0.0345,0.0365,0.0376,0.0405,0.0441,0.047,0.0467,0.0503,0.0502,0.0459,0.038,0.0251,0.0119,0.0018,-0.0094,-0.0137,-0.0097,-0.0115,-0.0184,-0.0181,-0.0217,-0.0218,-0.0218,-0.0219,-0.0219,0,0.0324,0.0344,0.0383,0.0409,0.0419,0.0456,0.0488,0.0506,0.0546,0.0564,0.0593,0.0534,0.0508,0.0313,0.0128,-0.0052,-0.0084,-0.0156,-0.0181,-0.0173,-0.0192,-0.0189,-0.0185,-0.0172,-0.0172,-0.0172,-0.0172,0,0.0358,0.0372,0.0401,0.0453,0.0494,0.0542,0.059,0.0636,0.0665,0.0699,0.074,0.0723,0.0546,0.038,0.0132,0.0009,-0.0127,-0.0161,-0.0162,-0.0151,-0.0133,-0.0151,-0.0149,-0.0171,-0.0171,-0.0171,-0.0171,-0.0171,0.0386,0.0411,0.0451,0.0501,0.0554,0.0624,0.0668,0.0731,0.0806,0.086,0.0851,0.0829,0.0635,0.0331,0.0114,-0.012,-0.0115,-0.0202,-0.0201,-0.0201,-0.0183,-0.0166,-0.0207,-0.0208,-0.0208,-0.0208,-0.0208,0,0.0417,0.0446,0.0494,0.0557,0.0618,0.0643,0.0736,0.0781,0.0871,0.093,0.0962,0.0788,0.0606,0.0375,0.0033,-0.0171,-0.0188,-0.0235,-0.0214,-0.0213,-0.0212,-0.0194,-0.0222,-0.0223,-0.0224,-0.0224,0,0,0.0434,0.0481,0.0502,0.0598,0.0647,0.0732,0.0787,0.0857,0.0917,0.0967,0.097,0.0957,0.0686,0.0436,0.0162,-0.0035,-0.0079,-0.0072,-0.0037,0.0022,0.0025,-0.0168,-0.0136,0,0,0,0,0]}],[{"header":{"parameterUnit":"m.s-1","parameterCategory":2,"la1":30.2991,"la2":30.254,"lo1":-89.0895,"lo2":-89.0444,"dy":0.0017,"dx":0.0017,"nx":28,"ny":28,"refTime":"2023-09-05T09:00:00:Z","depth":"4","parameterNumber":2,"parameterNumberName":"U-component_of_CURRENTS"},"data":[0,0,0,0,0,0,0,0,0,0,0,0,0,0,0,0,0,0,0,0,0,0,0,0,0,0,0,0,0,0,0,0,0,0,0,0,0,0,0,0,0,0,0,0,0,0,0,0,0,0,0,0,0,0,0,0,0,0,0.1363,0.1364,0,0.1418,0.1418,0.1419,0.1465,0.1465,0.1466,0.1467,0.1523,0.1524,0.1525,0,0,0,0,0,0,0,0,0,0,0,0,0,0.1269,0.127,0.1363,0.1364,0.1365,0.1418,0.1418,0.1419,0.1464,0.1465,0.1466,0.1467,0.1523,0.1524,0.1525,0,0,0,0,0,0,0,0,0,0,0,0,0,0.1314,0.1271,0.1363,0.1395,0.1399,0.1418,0.1418,0.1419,0.1464,0.1465,0.1466,0.1467,0.1523,0.1524,0.1525,0.1514,0,0,0.153,0.153,0,0,0,0,0,0,0,0,0.1311,0.1317,0.139,0.1393,0.1397,0.1437,0.1406,0.1452,0.1464,0.1438,0.1467,0.1468,0.1495,0.1499,0.1504,0.1517,0.1519,0.153,0.1531,0.1531,0.1531,0,0,0,0,0,0,0,0.1308,0.1315,0.1383,0.1391,0.1395,0.1397,0.1405,0.1415,0.1459,0.144,0.1444,0.1452,0.1497,0.1503,0.1506,0.152,0.153,0.1531,0.1532,0.1532,0.1616,0.1617,0,0,0,0,0,0,0.1305,0.1312,0.1381,0.1385,0.1358,0.1398,0.1407,0.1422,0.1459,0.1466,0.1452,0.1454,0.15,0.1504,0.1508,0.1576,0.1531,0.1532,0.1533,0.1615,0.1616,0.1618,0,0,0,0,0,0,0.1303,0.1311,0.1379,0.135,0.136,0.1399,0.1416,0.1422,0.1458,0.1468,0.1475,0.1484,0.1501,0.1506,0.1546,0.1576,0.1533,0.1534,0.1613,0.1615,0.1617,0.1661,0,0,0,0,0,0,0.13,0.131,0.1334,0.1351,0.1361,0.141,0.1415,0.1423,0.1461,0.1466,0.1498,0.1502,0.1502,0.1544,0.1547,0.1577,0.1535,0.1611,0.1614,0.1617,0.1658,0.1664,0.167,0,0,0,0,0,0.1297,0.132,0.1335,0.1344,0.1388,0.1411,0.1417,0.1446,0.1462,0.1482,0.1506,0.1503,0.1563,0.1546,0.1549,0.158,0.161,0.1613,0.1616,0.1655,0.1663,0.167,0,0,0,0,0,0,0.1288,0.1328,0.1344,0.1379,0.1403,0.142,0.1447,0.1462,0.1496,0.1511,0.1517,0.1524,0.157,0.1569,0.155,0.1613,0.1587,0.1591,0.1616,0.1623,0.1629,0.163,0.1536,0,0,0,0,0,0.1297,0.1333,0.1358,0.139,0.1406,0.1431,0.1451,0.1469,0.1494,0.1512,0.1533,0.1558,0.158,0.1598,0.1615,0.1646,0.1647,0.1671,0.1677,0.1682,0.1686,0.1712,0.1721,0.1628,0.1628,0.1628,0,0,0.1304,0.1331,0.1353,0.1392,0.1417,0.144,0.1446,0.1485,0.151,0.1511,0.1563,0.1581,0.1594,0.1632,0.1653,0.164,0.171,0.1686,0.169,0.1692,0.1716,0.1725,0.1733,0.1631,0.163,0.163,0,0,0.1321,0.136,0.139,0.1413,0.1455,0.1469,0.1486,0.1519,0.1546,0.1587,0.1599,0.1636,0.1669,0.1685,0.1695,0.1745,0.1741,0.1757,0.1791,0.1816,0.1823,0.183,0.1845,0.1853,0.1761,0.1761,0.1761,0,0.1326,0.1368,0.1401,0.1428,0.1452,0.1484,0.151,0.1537,0.1581,0.1605,0.1614,0.1679,0.1692,0.1734,0.1757,0.1759,0.1771,0.176,0.1823,0.183,0.1836,0.185,0.1858,0.1763,0.1763,0.1763,0.1763,0,0.1355,0.1395,0.1415,0.1463,0.149,0.1522,0.1555,0.1594,0.163,0.1653,0.1715,0.1737,0.1775,0.1789,0.1791,0.1845,0.1839,0.1826,0.1802,0.1848,0.186,0.1867,0.1767,0.1766,0.1765,0.1765,0,0,0.1339,0.142,0.1429,0.1458,0.1513,0.1534,0.1584,0.1632,0.1671,0.1719,0.1767,0.1815,0.1836,0.185,0.1862,0.1888,0.1943,0.1884,0.1884,0.1894,0.2001,0.1886,0.1883,0.1946,0.1948,0.1949,0.1993,0,0.1351,0.141,0.1447,0.15,0.1529,0.1574,0.1615,0.1664,0.171,0.1764,0.1803,0.1854,0.1856,0.1886,0.1915,0.1939,0.1965,0.1932,0.196,0.196,0.1848,0.1888,0.1954,0.1998,0.2,0.2001,0.2002,0,0.1359,0.14,0.1456,0.1525,0.1543,0.158,0.1654,0.1694,0.1769,0.1809,0.1866,0.1895,0.1956,0.1945,0.201,0.1993,0.2006,0.2015,0.2017,0.1897,0.1858,0.1943,0.2015,0.2014,0.2013,0.2012,0.2012,0,0.1326,0.1402,0.1452,0.1475,0.1554,0.1594,0.1641,0.1714,0.1753,0.1844,0.1884,0.195,0.1997,0.2027,0.2059,0.2044,0.2117,0.2091,0.1997,0.1989,0.206,0.2052,0.2131,0.2131,0.2131,0.2131,0.2131,0,0.1309,0.135,0.1448,0.1471,0.1526,0.159,0.1651,0.1709,0.1789,0.1832,0.191,0.1947,0.2024,0.2069,0.2081,0.2064,0.2137,0.2008,0.1994,0.2077,0.2071,0.2065,0.2056,0.2133,0.2132,0.2132,0.2132,0,0.126,0.1328,0.1383,0.1481,0.1512,0.1553,0.1646,0.1686,0.1777,0.1837,0.1871,0.1967,0.2023,0.2079,0.2133,0.208,0.208,0.2055,0.2152,0.2142,0.1928,0.1922,0.194,0.1936,0.1933,0.1931,0.1928,0,0.124,0.1268,0.1375,0.1407,0.1455,0.1525,0.1568,0.1667,0.1705,0.1826,0.1845,0.1939,0.1989,0.1973,0.2042,0.2055,0.2033,0.2017,0.1958,0.1924,0.191,0.1908,0.1906,0.1923,0.1923,0.1922,0.1921,0,0.119,0.1242,0.1289,0.1355,0.1411,0.1455,0.1528,0.154,0.1649,0.1749,0.1774,0.1798,0.1859,0.1893,0.1927,0.1929,0.2015,0.1984,0.1989,0.1933,0.1904,0.1892,0.1894,0.191,0.1912,0.1913,0.1913,0,0.1154,0.1172,0.1243,0.1286,0.135,0.1366,0.1412,0.1456,0.15,0.1633,0.1637,0.1739,0.1836,0.1829,0.1856,0.1857,0.1821,0.1754,0.1771,0.1783,0.1712,0.1651,0.157,0,0,0,0,0,0.1108,0.1123,0.1165,0.1204,0.1262,0.1297,0.1377,0.1425,0.1526,0.1505,0.1564,0.1609,0.1641,0.1694,0.1663,0.1792,0.1834,0.1747,0.1766,0.185,0.1863,0.1793,0,0,0,0,0,0,0.1078,0.1122,0.1136,0.1124,0.1135,0.1183,0.1229,0.1299,0.1292,0.1403,0.1431,0.1516,0.1576,0.1645,0.1633,0.1651,0.1631,0.1815,0.1811,0.1843,0.1854,0.1864,0.1797,0,0,0,0,0]},{"header":{"parameterUnit":"m.s-1","parameterCategory":2,"la1":30.2991,"la2":30.254,"lo1":-89.0895,"lo2":-89.0444,"dy":0.0017,"dx":0.0017,"nx":28,"ny":28,"refTime":"2023-09-05T09:00:00:Z","depth":"4","parameterNumber":3,"parameterNumberName":"V-component_of_CURRENTS"},"data":[0,0,0,0,0,0,0,0,0,0,0,0,0,0,0,0,0,0,0,0,0,0,0,0,0,0,0,0,0,0,0,0,0,0,0,0,0,0,0,0,0,0,0,0,0,0,0,0,0,0,0,0,0,0,0,0,0,0,-0.002,-0.002,0,-0.0055,-0.0056,-0.0056,-0.0082,-0.0082,-0.0083,-0.0083,-0.0119,-0.012,-0.0121,0,0,0,0,0,0,0,0,0,0,0,0,0,0.0008,0.0008,-0.002,-0.002,-0.0021,-0.0055,-0.0056,-0.0056,-0.0082,-0.0082,-0.0083,-0.0083,-0.0119,-0.012,-0.0121,0,0,0,0,0,0,0,0,0,0,0,0,0,-0.0013,0.0008,-0.002,-0.0038,-0.004,-0.0055,-0.0056,-0.0056,-0.0082,-0.0082,-0.0083,-0.0083,-0.0119,-0.012,-0.0121,-0.0122,0,0,-0.0125,-0.0125,0,0,0,0,0,0,0,0,-0.0012,-0.0014,-0.0035,-0.0037,-0.0039,-0.0064,-0.0059,-0.0078,-0.0082,-0.0066,-0.0083,-0.0083,-0.0101,-0.0103,-0.011,-0.0124,-0.0125,-0.0125,-0.0126,-0.0126,-0.0126,0,0,0,0,0,0,0,-0.001,-0.0013,-0.0034,-0.0035,-0.0038,-0.005,-0.0053,-0.0063,-0.0081,-0.0068,-0.007,-0.0073,-0.0102,-0.0108,-0.0111,-0.0126,-0.0125,-0.0126,-0.0127,-0.0127,-0.0147,-0.0147,0,0,0,0,0,0,-0.0004,-0.0011,-0.0033,-0.0035,-0.0026,-0.005,-0.0054,-0.0056,-0.0081,-0.0086,-0.0073,-0.0074,-0.0106,-0.0109,-0.0112,-0.011,-0.0126,-0.0127,-0.0128,-0.0147,-0.0147,-0.0147,0,0,0,0,0,0,-0.0004,-0.0006,-0.0032,-0.0024,-0.0028,-0.005,-0.0053,-0.0057,-0.0063,-0.0085,-0.009,-0.0076,-0.0107,-0.011,-0.0121,-0.0111,-0.0128,-0.0129,-0.0147,-0.0147,-0.0147,-0.0107,0,0,0,0,0,0,-0.0003,-0.0005,-0.0004,-0.0024,-0.0028,-0.0036,-0.0052,-0.0057,-0.0065,-0.0067,-0.0089,-0.0093,-0.0107,-0.0119,-0.0122,-0.0113,-0.013,-0.0147,-0.0147,-0.0147,-0.0109,-0.0106,-0.0103,0,0,0,0,0,-0.0002,0.0005,-0.0003,-0.0006,-0.0025,-0.0036,-0.0039,-0.0056,-0.0065,-0.0064,-0.0081,-0.0092,-0.0119,-0.012,-0.0124,-0.0115,-0.0147,-0.0147,-0.0147,-0.011,-0.0107,-0.0103,0,0,0,0,0,0,0.0019,0.0002,-0.0007,-0.0006,-0.0019,-0.004,-0.004,-0.0053,-0.0067,-0.0068,-0.0091,-0.0095,-0.0102,-0.0114,-0.0115,-0.012,-0.0135,-0.0135,-0.0106,-0.0102,-0.01,-0.009,-0.0131,0,0,0,0,0,0.0025,0.0025,0.0005,0.0007,0.0002,-0.0019,-0.0025,-0.0037,-0.0052,-0.0058,-0.0075,-0.0091,-0.0103,-0.0107,-0.0121,-0.0122,-0.014,-0.012,-0.0117,-0.0114,-0.0109,-0.0131,-0.013,-0.0145,-0.0145,-0.0145,0,0,0.0034,0.0025,0.0025,0.0011,0.0,-0.0001,-0.0023,-0.0029,-0.0029,-0.006,-0.0063,-0.0083,-0.0102,-0.0106,-0.0109,-0.0114,-0.0119,-0.0114,-0.0111,-0.0107,-0.013,-0.0129,-0.0128,-0.0145,-0.0145,-0.0145,0,0,0.0053,0.0044,0.0049,0.0041,0.0028,0.0016,0.0016,-0.0005,-0.0013,-0.0021,-0.0042,-0.0057,-0.0074,-0.0087,-0.0095,-0.0085,-0.0106,-0.0087,-0.006,-0.0082,-0.0081,-0.008,-0.01,-0.0101,-0.0082,-0.0082,-0.0082,0,0.0065,0.0066,0.005,0.0053,0.0052,0.0026,0.0034,0.0023,0.0001,-0.0001,-0.0016,-0.0045,-0.0065,-0.0068,-0.0066,-0.0077,-0.0092,-0.007,-0.0078,-0.0077,-0.0077,-0.0098,-0.01,-0.008,-0.008,-0.0081,-0.0081,0,0.0084,0.0086,0.009,0.0086,0.0086,0.0087,0.0072,0.0067,0.0052,0.0039,0.0028,-0.0004,-0.002,-0.0029,-0.0044,-0.0047,-0.0059,-0.0073,-0.0084,-0.0073,-0.0096,-0.0098,-0.0078,-0.0078,-0.0079,-0.0079,0,0,0.0105,0.0104,0.0105,0.0112,0.0104,0.0107,0.011,0.0106,0.0112,0.0083,0.0086,0.0056,0.0036,0.0025,0.0002,-0.0017,-0.0033,-0.0039,-0.0041,-0.0055,-0.0078,-0.0079,-0.0082,-0.0047,-0.0047,-0.0047,-0.0094,0,0.0124,0.014,0.0135,0.0156,0.0163,0.015,0.0158,0.0153,0.0142,0.0136,0.0101,0.0093,0.0059,0.0053,0.0028,-0.0016,-0.0038,-0.0019,-0.009,-0.0092,-0.0091,-0.0084,-0.0048,-0.0096,-0.0097,-0.0097,-0.0097,0,0.0141,0.015,0.0174,0.0191,0.0195,0.0205,0.0218,0.0223,0.021,0.02,0.0182,0.0153,0.0125,0.009,0.0022,0.0037,-0.0015,-0.0055,-0.0058,-0.0073,-0.0098,-0.0111,-0.0103,-0.0102,-0.0102,-0.0101,-0.0101,0,0.0162,0.0179,0.0202,0.0207,0.022,0.0234,0.0242,0.0242,0.0258,0.0242,0.0246,0.0203,0.0186,0.0116,0.0036,0.0029,-0.0044,-0.0067,-0.0119,-0.012,-0.0123,-0.0123,-0.012,-0.012,-0.012,-0.012,-0.012,0,0.018,0.0199,0.0215,0.0227,0.0261,0.0263,0.0295,0.0296,0.0308,0.0332,0.0283,0.0286,0.0193,0.014,0.0054,-0.0034,-0.0032,-0.0111,-0.013,-0.0106,-0.0104,-0.0125,-0.0125,-0.0122,-0.0121,-0.0121,-0.012,0,0.0196,0.0205,0.0234,0.0259,0.0271,0.0296,0.0336,0.0361,0.0363,0.0392,0.0392,0.0355,0.0285,0.0185,0.0075,0.0001,-0.0092,-0.0127,-0.0085,-0.0102,-0.016,-0.0157,-0.019,-0.019,-0.019,-0.0191,-0.0191,0,0.0203,0.0219,0.026,0.0283,0.0296,0.0331,0.0362,0.0386,0.0417,0.0434,0.0451,0.0403,0.0358,0.0211,0.0095,-0.0064,-0.0094,-0.0145,-0.0162,-0.0151,-0.0166,-0.0163,-0.016,-0.0191,-0.0191,-0.0192,-0.0192,0,0.0217,0.0233,0.0258,0.0306,0.0345,0.0389,0.0433,0.0463,0.0493,0.05,0.0506,0.0431,0.0352,0.0226,0.0105,-0.0013,-0.0113,-0.0149,-0.015,-0.0167,-0.0153,-0.0168,-0.0164,-0.0193,-0.0193,-0.0193,-0.0192,0,0.0228,0.0246,0.0282,0.0325,0.0379,0.0433,0.0453,0.0492,0.0527,0.0547,0.0549,0.046,0.0416,0.0252,0.014,0.0027,-0.0014,-0.0063,-0.0069,-0.007,-0.0027,0.0008,0.0007,0,0,0,0,0,0.0233,0.0255,0.0297,0.0347,0.0404,0.0435,0.0498,0.0516,0.0547,0.0562,0.056,0.0486,0.0333,0.027,0.0157,0.0112,-0.0048,-0.0028,-0.0111,-0.0199,-0.0198,-0.0168,0,0,0,0,0,0,0.0235,0.0273,0.0294,0.0361,0.0397,0.0463,0.0505,0.0526,0.0534,0.0549,0.0476,0.0444,0.0298,0.0398,0.015,0.0116,0.0044,-0.0097,-0.01,-0.02,-0.0199,-0.0197,-0.0167,0,0,0,0,0]}]]